TimeEST,TemperatureF,Dew PointF,Humidity,Sea Level PressureIn,VisibilityMPH,Wind Direction,Wind SpeedMPH,Gust SpeedMPH,PrecipitationIn,Events,Conditions,WindDirDegrees,DateUTC
12:03 AM,62.6,60.8,94,29.85,2.5,West,10.4,24.2,0.04,Rain,Rain,270,2013-03-06 05:03:00
12:13 AM,62.6,59.0,88,29.84,8.0,West,13.8,25.3,0.04,Rain,Light Rain,260,2013-03-06 05:13:00
12:53 AM,61.0,55.9,83,29.85,10.0,West,12.7,21.9,0.04,,Scattered Clouds,270,2013-03-06 05:53:00
1:53 AM,57.9,48.0,70,29.87,10.0,West,13.8,25.3,N/A,,Clear,280,2013-03-06 06:53:00
2:53 AM,53.1,44.1,71,29.89,10.0,West,15.0,24.2,N/A,,Scattered Clouds,280,2013-03-06 07:53:00
3:53 AM,46.9,30.9,54,29.93,10.0,West,18.4,38.0,N/A,,Partly Cloudy,280,2013-03-06 08:53:00
4:53 AM,45.0,28.0,52,29.95,10.0,WNW,15.0,26.5,N/A,,Clear,290,2013-03-06 09:53:00
5:53 AM,44.1,28.9,55,29.96,10.0,West,13.8,21.9,N/A,,Clear,280,2013-03-06 10:53:00
7:53 AM,45.0,28.0,52,30.00,10.0,West,12.7,25.3,N/A,,Clear,280,2013-03-06 12:53:00
8:53 AM,46.0,27.0,47,30.02,10.0,West,19.6,31.1,N/A,,Partly Cloudy,280,2013-03-06 13:53:00
9:53 AM,46.9,26.1,44,30.02,10.0,West,17.3,28.8,N/A,,Clear,280,2013-03-06 14:53:00
10:53 AM,50.0,26.1,39,30.02,10.0,West,18.4,25.3,N/A,,Clear,280,2013-03-06 15:53:00
11:53 AM,51.1,21.9,32,30.01,10.0,WNW,11.5,28.8,N/A,,Clear,290,2013-03-06 16:53:00
12:53 PM,52.0,21.9,31,29.99,10.0,West,20.7,29.9,N/A,,Clear,270,2013-03-06 17:53:00
1:53 PM,53.1,23.0,31,29.97,10.0,WNW,21.9,31.1,N/A,,Clear,290,2013-03-06 18:53:00
2:53 PM,53.1,25.0,34,29.96,10.0,West,16.1,28.8,N/A,,Clear,280,2013-03-06 19:53:00
3:53 PM,53.1,26.1,35,29.97,10.0,WNW,18.4,27.6,N/A,,Clear,290,2013-03-06 20:53:00
4:53 PM,53.1,27.0,37,29.99,10.0,NW,13.8,21.9,N/A,,Clear,310,2013-03-06 21:53:00
5:53 PM,51.1,28.0,41,30.01,10.0,WNW,9.2,26.5,N/A,,Clear,290,2013-03-06 22:53:00
6:53 PM,50.0,28.0,43,30.04,10.0,WNW,6.9,18.4,N/A,,Clear,300,2013-03-06 23:53:00
7:53 PM,48.9,28.0,44,30.08,10.0,WNW,6.9,-,N/A,,Clear,290,2013-03-07 00:53:00
8:53 PM,46.9,28.9,50,30.10,10.0,NW,6.9,-,N/A,,Clear,310,2013-03-07 01:53:00
9:53 PM,46.0,28.9,51,30.13,10.0,NW,4.6,-,N/A,,Clear,310,2013-03-07 02:53:00
10:53 PM,44.1,28.0,53,30.13,10.0,NNW,5.8,-,N/A,,Clear,330,2013-03-07 03:53:00
11:53 PM,43.0,28.9,58,30.14,10.0,WNW,4.6,-,N/A,,Clear,300,2013-03-07 04:53:00